Lid_Strength_Index
1 1 1 1 1 1 1 0 0 -0 -0 -0 -0 -0 -0 -0 -0 2 5 2 0 -2 -1 2 4 3 2 3 3 3 9 11 10 9 8 6 6 5 4 5 4 3 4 3 2
1 1 1 0 0 -0 -0 -0 -0 -0 -0 -1 -1 -1 -1 -0 2 3 1 -0 -1 -2 3 3 6 5 5 4 4 6 9 9 6 6 7 6 6 5 5 5 5 4 3 2 2
0 0 0 0 0 -0 -0 -0 -0 -1 -1 -1 -1 -0 -0 0 5 3 -1 -1 -1 -1 1 1 2 5 6 4 4 5 9 6 6 5 5 6 6 5 6 7 5 5 4 3 3
1 1 0 0 -0 -0 -0 -0 -1 -1 -1 -1 -1 -1 -1 2 10 3 -0 -0 -1 1 1 2 4 7 7 7 5 7 5 5 5 5 6 6 5 6 5 5 3 3 3 3 3
1 1 0 0 -0 -0 -0 -1 -1 -1 -1 -1 -1 -1 1 5 7 3 0 1 1 2 3 4 5 6 8 7 6 6 6 5 5 5 5 5 6 6 6 4 4 4 3 4 3
1 1 1 0 0 0 -0 -1 -1 -1 -1 -1 -1 -0 2 7 2 2 2 2 2 2 3 3 5 4 6 6 7 5 5 5 5 5 5 6 6 6 5 4 4 4 4 4 3
1 1 1 1 1 0 -0 -0 -1 -1 -1 -1 -1 0 3 5 1 0 1 2 2 2 3 3 3 4 5 7 5 5 7 6 6 5 7 5 8 7 4 5 5 4 4 4 3
1 1 1 1 1 1 0 -0 -1 -1 -1 -1 -0 1 5 1 -0 1 1 1 1 1 2 2 2 3 4 4 6 7 7 10 6 6 6 7 11 6 5 6 5 5 4 4 4
1 1 1 1 1 1 0 -0 -0 -1 -1 -1 1 2 5 1 3 2 1 3 2 1 1 1 2 4 5 7 9 8 11 9 8 6 7 8 9 6 5 5 5 5 5 4 4
2 2 2 1 1 1 1 1 -1 -1 -1 -0 1 5 3 4 2 2 1 1 3 3 4 4 4 7 7 8 12 11 10 9 9 7 8 9 9 7 6 6 6 5 5 5 4
3 2 2 2 1 1 1 2 3 4 3 5 5 5 4 2 2 2 2 2 3 5 7 6 8 9 8 7 7 8 9 9 8 6 8 9 9 8 6 6 6 6 6 5 5
3 3 3 2 2 1 2 4 5 4 7 3 3 4 3 3 5 3 2 5 6 8 7 8 10 7 6 7 8 8 9 9 8 7 8 8 9 7 7 6 6 6 5 5 4
3 3 3 3 2 2 2 3 2 2 7 5 4 4 4 3 5 5 3 5 6 8 8 10 8 6 7 8 9 9 10 9 10 9 8 8 10 9 7 6 6 5 4 4 4
3 3 3 3 5 4 3 2 2 2 9 7 6 4 3 4 6 3 3 5 6 9 8 9 7 8 9 9 8 11 7 8 10 12 14 9 13 10 8 8 7 6 5 5 5
3 3 3 4 5 6 4 2 2 3 13 6 6 2 3 6 5 5 3 4 8 8 8 10 9 9 10 9 7 10 7 8 9 11 12 12 12 10 8 10 8 6 6 5 4
3 3 3 5 4 5 3 3 2 10 14 8 6 6 6 6 6 5 5 4 5 8 8 9 6 8 9 8 8 7 9 10 11 12 17 11 12 11 10 9 7 6 6 6 6
3 4 4 4 7 4 3 4 10 13 8 9 8 7 7 7 7 7 7 8 10 12 13 10 9 7 7 10 8 9 10 16 19 20 19 11 13 10 8 8 7 8 7 6 7
3 4 4 4 3 3 5 8 12 10 9 7 7 7 9 8 7 7 8 9 8 10 13 16 16 10 7 9 11 10 10 16 23 17 15 11 14 10 8 8 9 9 7 7 8
4 5 5 4 4 3 7 12 11 9 8 8 7 9 9 8 8 8 8 9 8 8 13 15 15 8 8 8 8 12 13 12 16 12 14 13 10 8 9 9 9 9 8 8 8
5 6 5 4 3 6 9 12 10 8 8 8 10 9 11 9 9 8 9 7 8 7 6 10 16 9 8 7 7 10 9 15 15 18 18 13 12 11 9 9 9 10 9 9 9
6 8 5 4 5 8 12 12 10 8 7 9 9 9 9 10 9 9 9 7 7 8 7 8 11 12 9 10 10 10 12 11 11 13 16 15 13 10 10 10 9 9 9 8 8
7 11 6 5 9 9 11 11 10 9 8 8 8 8 8 8 9 9 9 8 7 8 9 7 10 14 13 8 8 10 10 10 14 15 12 12 13 10 9 9 8 8 8 8 8
9 8 5 5 12 11 11 11 10 10 10 9 9 8 7 8 10 9 8 6 7 8 9 8 10 13 13 10 9 10 9 10 10 10 14 14 13 10 9 9 8 8 8 8 8
8 11 8 6 9 11 12 12 12 9 10 9 9 9 9 9 8 9 9 7 7 7 6 7 10 12 14 13 12 12 10 10 10 12 12 12 11 9 9 9 9 8 8 8 8
8 11 10 12 10 10 11 11 12 12 10 10 11 10 11 11 9 10 9 8 8 8 8 9 11 11 10 10 10 11 12 11 12 11 13 12 12 10 9 9 8 7 7 8 7
10 10 9 10 11 11 12 12 13 12 11 12 11 10 10 11 10 10 9 9 9 8 9 9 11 11 12 11 10 12 10 11 11 11 10 10 10 9 8 8 7 6 7 7 7
7 7 8 11 12 12 12 12 12 11 10 10 10 11 11 10 9 8 8 8 8 9 10 10 11 11 13 11 11 12 11 10 10 10 10 11 9 8 9 8 7 7 7 7 7